Location: Waldport
(44.4270°N, 124.0680°W)
Time: 09:44:03
(UTC-08:00)

OTV 5 (USA 277) - Visible Passes

Search period start: 19 February 2019 00:00
Search period end: 01 March 2019 00:00
Orbit: 342 x 346 km, 54.5° (Epoch: 17 February)

Date Brightness Start Highest point End Pass type
(mag) Time Alt. Az. Time Alt. Az. Time Alt. Az.
22 Feb ? 19:22:36 10° S 19:23:38 16° SSE 19:23:38 16° SSE visible
23 Feb ? 19:45:31 10° SW 19:47:16 33° SW 19:47:16 33° SW visible
24 Feb ? 18:35:05 10° S 18:37:20 21° SE 18:39:16 12° E visible
24 Feb ? 20:09:21 10° WSW 20:10:44 23° W 20:10:44 23° W visible
25 Feb ? 18:57:57 10° SW 19:00:49 68° SE 19:02:37 20° ENE visible
25 Feb ? 20:33:45 10° WNW 20:34:05 12° WNW 20:34:05 12° WNW visible
26 Feb ? 19:21:45 10° WSW 19:24:30 40° NNW 19:25:51 23° NNE visible
27 Feb ? 19:46:09 10° WNW 19:48:23 20° NNW 19:48:59 19° N visible
28 Feb ? 18:34:10 10° WSW 18:36:56 41° NNW 18:39:43 10° NE visible
28 Feb ? 20:10:54 10° NW 20:12:01 13° NNW 20:12:01 13° NNW visible
